THORAD AGENA D DEB, 4859

Orbit data source: Space-Track

THORAD AGENA D DEB, 4859 is space debris in SSO originally from a launch on Wed, 08 Apr 1970 UTC launched from the Air Force Western Test Range (AFWTR). Debris objects in space refer to the collection of defunct objects orbiting the Earth. Examples of debris include non-operational satellites, rocket bodies, and fragments generated from explosions, collisions, or faulty payload assembly.

Loading next visibility...
Identifier
4859, 1970-025EP
Orbit
SSO
Country
Flag of USUS
Related business
Manufacturer
Unknown
Mission
Spacecraft
Bus & Motor
Unknown
Mass
Unknown
Launch date (UTC)
1970-04-08 (56 years ago)
Launch vehicle
Unknown
Launch site
Air Force Western Test Range (AFWTR)
Object type
Payload
Rocket body
Debris
Shape & HBR
Unknown shape, 0.1 m
Radar Cross Section
Small (<0.1 m²)

Expand to show TLE details & history
Last TLE update: 2 days ago

TLE from 2 days ago
0 THORAD AGENA D DEB
1 04859U 70025EP  26032.77535624  .00000749  00000-0  10416-2 0  9996
2 04859  99.9459 129.3583 0047450 274.2828 241.0860 13.61044072749297
Epoch: 2026-02-01T18:36Z
TLE epoch observation values (Epoch: 2026-02-01T18:36:30.779Z)
Latitude
24.73072°
Longitude
-97.14132°
Altitude
1,051.913 km
Speed
7.32 km/s
True Right ascension
20h 55m 52s
True Declination
24° 36' 20"
Sunlit
Object was in daylight at epoch
Visualization orbit readout
Latitude
Unknown
Longitude
Unknown
Altitude
Unknown
Speed
Unknown
Apparent Right ascension
Unknown
Apparent Declination
Unknown
Sunlit
N/A
Visualization observer readout
Local Sidereal Time
11:41:29
Azimuth
Unknown
Elevation
Unknown
Doppler factor
Unknown
Orbital elements
Apogee altitude
1,064.347 km
Perigee altitude
994.052 km
Semi-major axis
7,407.337 km
Eccentricity
0.00475
Inclination
99.9459°
RAAN
129.3583°
Arg. of periapsis
274.2828°
True anomaly
240.61141°
Mean anomaly
241.086°
Eccentric anomaly
240.84857°
Mean motion
3.40447 °/min
Orbital period
105.74 mins
BSTAR
0.0010416
Loading maneuver chart data...
Computing Atmospheric mass density...

Documentation

Showing up to 5 results
|